Location: Boston
(42.3580°N, 71.0600°W)
Time: 13:00:19
(UTC-04:00)

YUBILEINY - Visible Passes

Search period start: 19 August 2018 00:00
Search period end: 29 August 2018 00:00
Orbit: 1478 x 1509 km, 82.5° (Epoch: 19 August)

Date Brightness Start Highest point End Pass type
(mag) Time Alt. Az. Time Alt. Az. Time Alt. Az.
19 Aug ? 01:29:15 80° SSE 01:29:47 85° E 01:38:31 10° N visible
19 Aug ? 03:25:09 19° W 03:27:43 21° WNW 03:34:02 10° NNW visible
20 Aug ? 00:40:12 48° E 00:40:26 49° E 00:48:39 10° NNE visible
20 Aug ? 02:36:06 37° W 02:37:23 38° WNW 02:45:22 10° N visible
20 Aug ? 23:51:08 27° E 23:51:27 27° E 23:58:15 10° NNE visible
21 Aug ? 01:47:03 66° W 01:47:28 67° W 01:56:10 10° N visible
21 Aug ? 03:42:57 11° W 03:46:12 14° NW 03:50:14 10° NNW visible
21 Aug ? 23:02:04 13° E 23:02:48 13° ENE 23:06:22 10° NE visible
22 Aug ? 00:57:58 73° E 00:57:58 73° E 01:06:34 10° NNE visible
22 Aug ? 02:53:53 24° W 02:55:32 26° WNW 03:02:29 10° NNW visible
23 Aug ? 00:08:53 41° E 00:08:53 41° E 00:16:34 10° NNE visible
23 Aug ? 02:04:48 45° W 02:05:20 45° WNW 02:13:37 10° N visible
23 Aug ? 23:19:48 22° ENE 23:19:48 22° ENE 23:25:55 10° NNE visible
24 Aug ? 01:15:43 78° WNW 01:15:43 78° WNW 01:24:17 10° N visible
24 Aug ? 03:11:37 15° WNW 03:13:55 17° WNW 03:19:05 10° NNW visible
24 Aug ? 22:30:42 10° ENE 22:31:14 10° ENE 22:31:59 10° ENE visible
25 Aug ? 00:26:37 61° ENE 00:26:37 61° ENE 00:34:35 10° NNE visible
25 Aug ? 02:22:31 30° WNW 02:23:24 30° WNW 02:30:50 10° N visible
25 Aug ? 23:37:30 34° ENE 23:37:30 34° ENE 23:44:26 10° NNE visible
26 Aug ? 01:33:24 53° WNW 01:33:24 53° WNW 01:41:49 10° N visible
26 Aug ? 03:32:15 10° NW 03:32:34 10° NW 03:32:53 10° NW visible
26 Aug ? 22:48:23 18° ENE 22:48:23 18° ENE 22:53:25 10° NE visible
27 Aug ? 00:44:17 79° N 00:44:17 79° N 00:52:23 10° N visible
27 Aug ? 02:40:12 19° WNW 02:41:41 20° WNW 02:47:43 10° NNW visible
27 Aug ? 23:55:10 50° ENE 23:55:10 50° ENE 00:02:34 10° NNE visible
28 Aug ? 01:51:04 36° WNW 01:51:19 36° WNW 01:59:09 10° N visible
28 Aug ? 23:06:01 28° ENE 23:06:01 28° ENE 23:12:15 10° NNE visible
